Date String (YYYY-MM-DD hh:mm:ss) UTC,Instrument flags,Ambient pressure (hPa),Sample flow (lpm),Bypass flow (lpm),Sample temperature (°C),Ambient temperature (°C),ASC tube jacket temperature (°C),LED temperature (°C),Box temperature (°C),Sample RH (%),Span deviation,Mass concentration (μg/m³),Mass concentration (μg/m³),Mass concentration (μg/m³)
DateTimeUTC,F1_M11,P_M11,Q1_M11,Q2_M11,T1_M11,T2_M11,T3_M11,T4_M11,T5_M11,U1_M11,ZSPAN_M11,X2_M11,X0_M11,X1_M11
2021-10-03 09:00:00,,0831.7,4.99,0.00,29.7,28.6,00.0,38.9,31.4,15.8,0001.0,0005.19,0013.76,0004.62
2021-10-03 09:01:00,,0831.7,5.01,0.00,29.7,28.6,00.0,38.9,31.4,15.8,0000.9,0005.17,0014.09,0004.62
2021-10-03 09:02:00,,0831.7,5.00,0.00,29.7,28.6,00.0,38.9,31.4,15.9,0001.0,0005.17,0014.26,0004.63
2021-10-03 09:03:00,,0831.7,5.00,0.00,29.7,28.6,00.0,38.9,31.4,15.9,0001.0,0005.17,0014.56,0004.63
2021-10-03 09:04:00,,0831.7,4.99,0.00,29.7,28.6,00.0,38.9,31.4,15.9,0001.5,0005.17,0014.60,0004.63
2021-10-03 09:05:00,,0831.7,5.00,0.00,29.7,28.5,00.0,38.9,31.4,15.9,0001.4,0005.17,0015.04,0004.64
2021-10-03 09:06:00,,0831.7,5.00,0.00,29.7,28.5,00.0,38.9,31.3,15.9,0001.8,0005.19,0015.16,0004.65
2021-10-03 09:07:00,,0831.7,5.00,0.00,29.7,28.5,00.0,38.8,31.3,15.9,0001.8,0005.21,0013.93,0004.65
2021-10-03 09:08:00,,0831.7,4.99,0.00,29.7,28.5,00.0,38.8,31.4,15.9,0002.0,0005.23,0013.68,0004.66
2021-10-03 09:09:00,,0831.6,4.99,0.00,29.7,28.5,00.0,38.8,31.4,15.9,0001.7,0005.28,0013.03,0004.66
2021-10-03 09:10:00,,0831.6,5.01,0.00,29.7,28.5,00.0,38.8,31.4,15.8,0001.6,0005.31,0011.89,0004.66
2021-10-03 09:11:00,,0831.6,5.00,0.00,29.7,28.5,00.0,38.8,31.3,15.9,0002.0,0005.31,0011.70,0004.66
2021-10-03 09:12:00,,0831.6,5.00,0.00,29.7,28.5,00.0,38.8,31.3,15.9,0002.1,0005.36,0011.22,0004.66
2021-10-03 09:13:00,,0831.6,5.02,0.00,29.6,28.5,00.0,38.8,31.3,15.9,0001.9,0005.35,0010.90,0004.65
2021-10-03 09:14:00,,0831.6,5.00,0.00,29.6,28.5,00.0,38.8,31.3,15.9,0002.0,0005.36,0010.58,0004.65
2021-10-03 09:15:00,,0831.5,4.98,0.00,29.6,28.5,00.0,38.8,31.3,15.9,0002.1,0005.38,0010.70,0004.65
2021-10-03 09:16:00,,0831.6,5.00,0.00,29.6,28.6,00.0,38.8,31.3,15.9,0002.4,0005.39,0010.32,0004.66
2021-10-03 09:17:00,,0831.5,5.01,0.00,29.6,28.5,00.0,38.8,31.3,15.9,0002.6,0005.38,0009.58,0004.69
2021-10-03 09:18:00,,0831.5,4.99,0.00,29.6,28.5,00.0,38.8,31.3,15.9,0002.8,0005.34,0009.40,0004.71
2021-10-03 09:19:00,,0831.5,4.99,0.00,29.6,28.5,00.0,38.8,31.3,16.0,0002.6,0005.37,0009.30,0004.72
2021-10-03 09:20:00,,0831.5,5.00,0.00,29.6,28.5,00.0,38.8,31.3,16.0,0003.1,0005.41,0009.49,0004.75
2021-10-03 09:21:00,,0831.5,5.00,0.00,29.6,28.5,00.0,38.8,31.3,16.0,0003.3,0005.43,0009.87,0004.77
2021-10-03 09:22:00,,0831.5,5.00,0.00,29.6,28.5,00.0,38.8,31.3,16.0,0003.2,0005.46,0010.12,0004.78
2021-10-03 09:23:00,,0831.5,5.00,0.00,29.6,28.4,00.0,38.8,31.3,16.0,0002.9,0005.49,0010.07,0004.79
2021-10-03 09:24:00,,0831.5,5.00,0.00,29.6,28.5,00.0,38.8,31.3,16.1,0003.1,0005.51,0010.45,0004.81
2021-10-03 09:25:00,,0831.6,5.00,0.00,29.6,28.5,00.0,38.8,31.3,16.1,0003.1,0005.51,0010.80,0004.82
2021-10-03 09:26:00,,0831.5,4.99,0.00,29.6,28.5,00.0,38.8,31.3,16.1,0002.8,0005.48,0010.60,0004.81
2021-10-03 09:27:00,,0831.5,5.01,0.00,29.6,28.5,00.0,38.8,31.3,16.1,0002.1,0005.46,0010.37,0004.80
2021-10-03 09:28:00,,0831.5,5.00,0.00,29.6,28.5,00.0,38.8,31.3,16.2,0001.8,0005.43,0010.32,0004.78
2021-10-03 09:29:00,,0831.5,4.98,0.00,29.6,28.5,00.0,38.8,31.3,16.2,0002.1,0005.43,0010.41,0004.78
2021-10-03 09:30:00,,0831.5,5.01,0.00,29.6,28.5,00.0,38.8,31.2,16.2,0002.3,0005.40,0010.44,0004.77
2021-10-03 09:31:00,,0831.5,5.01,0.00,29.5,28.5,00.0,38.8,31.2,16.3,0001.9,0005.34,0010.49,0004.76
2021-10-03 09:32:00,,0831.5,5.00,0.00,29.6,28.5,00.0,38.8,31.2,16.3,0001.7,0005.30,0010.41,0004.76
2021-10-03 09:33:00,,0831.6,5.01,0.00,29.5,28.5,00.0,38.7,31.3,16.3,0001.6,0005.27,0010.21,0004.76
2021-10-03 09:34:00,,0831.5,5.00,0.00,29.5,28.5,00.0,38.7,31.2,16.4,0001.7,0005.23,0010.14,0004.75
2021-10-03 09:35:00,,0831.5,5.00,0.00,29.5,28.4,00.0,38.7,31.2,16.3,0001.5,0005.20,0009.79,0004.74
2021-10-03 09:36:00,,0831.5,4.99,0.00,29.5,28.4,00.0,38.7,31.2,16.4,0001.5,0005.21,0009.48,0004.76
2021-10-03 09:37:00,,0831.5,5.00,0.00,29.5,28.4,00.0,38.7,31.2,16.4,0001.7,0005.24,0009.52,0004.78
2021-10-03 09:38:00,,0831.4,4.99,0.00,29.5,28.4,00.0,38.7,31.2,16.4,0002.0,0005.25,0009.56,0004.78
2021-10-03 09:39:00,,0831.4,5.01,0.00,29.5,28.4,00.0,38.7,31.2,16.4,0002.0,0005.26,0009.59,0004.77
2021-10-03 09:40:00,,0831.5,4.99,0.00,29.5,28.4,00.0,38.7,31.2,16.3,0001.9,0005.25,0009.57,0004.75
2021-10-03 09:41:00,,0831.4,5.01,0.00,29.5,28.4,00.0,38.7,31.2,16.3,0001.6,0005.25,0009.79,0004.74
2021-10-03 09:42:00,,0831.4,5.00,0.00,29.5,28.4,00.0,38.7,31.2,16.3,0001.6,0005.30,0009.71,0004.72
2021-10-03 09:43:00,,0831.4,4.99,0.00,29.5,28.4,00.0,38.7,31.2,16.4,0001.6,0005.34,0009.34,0004.71
2021-10-03 09:44:00,,0831.4,4.99,0.00,29.5,28.4,00.0,38.7,31.2,16.4,0001.5,0005.36,0009.36,0004.70
2021-10-03 09:45:00,,0831.4,5.00,0.00,29.5,28.4,00.0,38.7,31.2,16.4,0001.7,0005.37,0010.08,0004.70
2021-10-03 09:46:00,,0831.4,5.00,0.00,29.5,28.4,00.0,38.7,31.2,16.4,0001.8,0005.38,0010.31,0004.69
2021-10-03 09:47:00,,0831.4,5.00,0.00,29.5,28.4,00.0,38.7,31.2,16.4,0002.0,0005.38,0010.62,0004.67
2021-10-03 09:48:00,,0831.4,5.00,0.00,29.5,28.4,00.0,38.7,31.2,16.4,0002.0,0005.36,0010.65,0004.66
2021-10-03 09:49:00,,0831.4,4.99,0.00,29.5,28.4,00.0,38.7,31.2,16.4,0002.0,0005.33,0010.66,0004.65
2021-10-03 09:50:00,,0831.4,5.00,0.00,29.5,28.4,00.0,38.7,31.2,16.4,0001.9,0005.33,0010.75,0004.65
2021-10-03 09:51:00,,0831.4,5.01,0.00,29.5,28.4,00.0,38.7,31.2,16.4,0001.7,0005.32,0010.76,0004.65
2021-10-03 09:52:00,,0831.4,5.00,0.00,29.5,28.4,00.0,38.7,31.2,16.4,0001.5,0005.29,0010.41,0004.64
2021-10-03 09:53:00,,0831.3,5.00,0.00,29.5,28.4,00.0,38.7,31.2,16.4,0001.6,0005.24,0010.21,0004.64
2021-10-03 09:54:00,,0831.3,4.98,0.00,29.5,28.4,00.0,38.7,31.2,16.5,0001.9,0005.19,0010.25,0004.64
2021-10-03 09:55:00,,0831.3,5.01,0.00,29.5,28.4,00.0,38.6,31.2,16.5,0002.1,0005.19,0010.74,0004.65
2021-10-03 09:56:00,,0831.3,5.00,0.00,29.5,28.4,00.0,38.6,31.1,16.4,0002.1,0005.15,0010.16,0004.64
2021-10-03 09:57:00,,0831.2,5.00,0.00,29.5,28.4,00.0,38.6,31.1,16.5,0002.4,0005.17,0009.78,0004.64
2021-10-03 09:58:00,,0831.2,5.01,0.00,29.5,28.3,00.0,38.6,31.1,16.5,0002.6,0005.17,0009.46,0004.63
2021-10-03 09:59:00,,0831.2,4.99,0.00,29.5,28.3,00.0,38.6,31.1,16.5,0002.4,0005.16,0009.45,0004.62
